GW1009 Weather Reports


time (UTC)temp
F
wind
direction
speed
knots
gust
knots
rain 1hr
in
rain 24hr
in
rain mn
in
humidity
%
barometer
mb
20260510063526 49 222 2.6 8.7 0.00 0.19 0.08 88 1007.5
20260510063033 49 155 2.6 7.0 0.01 0.19 0.08 88 1007.3
20260510062525 49 190 1.7 7.8 0.02 0.19 0.08 88 1007.5
20260510062024 49 179 2.6 7.0 0.02 0.19 0.08 88 1007.5
20260510061523 49 194 1.7 5.2 0.03 0.19 0.08 87 1007.5
20260510061026 49 208 0.9 7.0 0.04 0.19 0.08 87 1007.8
20260510060524 49 206 3.5 7.0 0.05 0.19 0.08 87 1007.8
20260510060035 49 234 0.9 7.8 0.05 0.19 0.08 87 1007.7
20260510055530 49 207 4.3 12.2 0.05 0.19 0.08 87 1007.7
20260510055022 49 178 5.2 12.2 0.05 0.19 0.08 87 1007.6
20260510054523 49 203 3.5 9.6 0.05 0.19 0.08 88 1007.7
20260510054021 49 142 6.1 9.6 0.06 0.19 0.08 88 1007.6
20260510053520 49 136 4.3 7.8 0.07 0.19 0.08 88 1007.8
20260510053019 49 193 3.5 7.8 0.07 0.18 0.07 88 1008.3
20260510052519 49 192 2.6 7.8 0.06 0.17 0.06 88 1008.4
20260510052018 49 182 0.9 3.5 0.05 0.16 0.05 89 1008.5
20260510051517 49 206 0.9 3.5 0.05 0.16 0.05 88 1008.8
20260510051016 50 251 0.0 1.7 0.04 0.15 0.04 88 1008.9
20260510050516 50 251 0.0 2.6 0.03 0.14 0.03 88 1008.8
20260510050018 50 253 0.0 1.7 0.03 0.14 0.03 88 1008.7
20260510045518 50 254 0.0 2.6 0.03 0.14 0.03 88 1008.6
20260510045013 50 255 0.9 2.6 0.03 0.14 0.03 87 1008.6
20260510044513 50 273 0.0 4.3 0.03 0.14 0.03 87 1008.6
20260510044018 50 277 0.9 10.4 0.02 0.13 0.02 87 1008.5
20260510043516 50 286 1.7 10.4 0.01 0.12 0.01 86 1008.5
20260510043010 50 284 5.2 9.6 0.00 0.11 0.00 86 1008.5
20260510042512 50 313 1.7 4.3 0.00 0.11 0.00 86 1008.4
20260510042008 50 274 1.7 5.2 0.00 0.11 0.00 86 1008.1
20260510041508 50 214 0.9 5.2 0.00 0.11 0.00 86 1008.0
20260510041007 50 241 0.9 4.3 0.00 0.11 0.00 86 1007.9
20260510040505 50 264 0.9 5.2 0.00 0.11 0.00 86 1007.8
20260510040010 50 250 0.9 7.0 0.00 0.11 0.00 86 1007.7
20260510035502 50 203 2.6 9.6 0.00 0.11 0.11 86 1007.7
20260510035003 50 260 3.5 9.6 0.00 0.11 0.11 86 1007.4
20260510034502 50 193 4.3 10.4 0.00 0.11 0.11 85 1007.4
20260510034003 50 183 3.5 10.4 0.00 0.11 0.11 85 1007.4
20260510033501 51 184 2.6 8.7 0.00 0.11 0.11 85 1007.3
20260510033002 51 196 2.6 7.8 0.00 0.11 0.11 85 1007.3
20260510032502 51 173 3.5 7.8 0.00 0.11 0.11 84 1007.2
20260510032003 51 191 2.6 8.7 0.00 0.11 0.11 84 1007.4
20260510031501 51 170 2.6 7.8 0.00 0.11 0.11 84 1007.3
20260510031001 51 171 1.7 6.1 0.00 0.11 0.11 84 1007.5
20260510030500 51 206 0.0 10.4 0.00 0.11 0.11 84 1007.5
20260510025600 51 212 1.7 6.1 0.00 0.11 0.11 84 1007.6
20260510025102 51 199 3.5 6.1 0.00 0.11 0.11 84 1007.5
20260510024602 51 155 2.6 8.7 0.00 0.11 0.11 84 1007.2
20260510024100 51 221 5.2 8.7 0.00 0.11 0.11 84 1007.1
20260510023559 51 156 3.5 7.8 0.00 0.11 0.11 84 1007.1
20260510023058 51 166 4.3 10.4 0.00 0.11 0.11 84 1007.1
20260510022559 51 167 6.1 10.4 0.00 0.11 0.11 84 1007.1
20260510022100 51 142 5.2 10.4 0.00 0.11 0.11 85 1007.0
20260510021646 51 145 2.6 7.0 0.00 0.11 0.11 85 1007.1
20260510021058 51 184 3.5 7.8 0.00 0.11 0.11 85 1007.1
20260510020557 51 166 3.5 7.0 0.00 0.11 0.11 85 1007.0
20260510020100 51 142 3.5 7.8 0.00 0.11 0.11 85 1007.1
20260510015557 51 150 4.3 7.8 0.00 0.11 0.11 85 1007.2
20260510015058 50 148 2.6 6.1 0.00 0.11 0.11 86 1007.5
20260510014600 50 150 1.7 6.1 0.00 0.11 0.11 86 1007.4
20260510014056 50 142 3.5 6.1 0.00 0.11 0.11 86 1007.3
20260510013556 50 157 1.7 7.8 0.00 0.11 0.11 86 1007.3
20260510013102 50 142 3.5 7.8 0.00 0.11 0.11 86 1007.1
20260510012556 50 154 2.6 5.2 0.00 0.11 0.11 86 1007.0
20260510012055 50 133 2.6 4.3 0.00 0.11 0.11 85 1006.9
20260510011555 50 150 2.6 6.1 0.00 0.11 0.11 85 1006.9
20260510011054 51 140 2.6 6.1 0.00 0.11 0.11 85 1007.0
20260510010554 51 147 2.6 6.1 0.00 0.11 0.11 85 1007.0
20260510010059 51 138 2.6 6.1 0.00 0.11 0.11 85 1007.1
20260510005554 51 169 1.7 7.0 0.00 0.11 0.11 85 1007.1
20260510005054 50 169 3.5 10.4 0.00 0.11 0.11 85 1006.9
20260510004554 50 132 3.5 10.4 0.00 0.11 0.11 85 1006.9
20260510004054 50 130 3.5 7.8 0.00 0.11 0.11 85 1006.7
20260510003554 50 126 2.6 7.8 0.00 0.11 0.11 85 1006.7
20260510003054 50 146 1.7 6.1 0.00 0.11 0.11 85 1006.7
20260510002557 50 146 2.6 6.1 0.00 0.11 0.11 85 1006.6
20260510002053 51 136 2.6 7.0 0.00 0.11 0.11 85 1006.6
20260510001553 51 156 3.5 7.0 0.00 0.11 0.11 85 1006.7
20260510001053 51 160 2.6 10.4 0.00 0.11 0.11 85 1006.5
20260510000556 51 188 4.3 10.4 0.00 0.11 0.11 85 1006.3
20260510000053 51 155 5.2 8.7 0.00 0.11 0.11 85 1006.4
20260509235552 51 134 3.5 7.0 0.00 0.11 0.11 85 1006.6
20260509235053 51 142 3.5 6.1 0.00 0.11 0.11 85 1006.7
20260509234552 51 193 2.6 6.1 0.00 0.11 0.11 85 1006.8
20260509234051 51 183 2.6 8.7 0.00 0.11 0.11 85 1006.7
20260509233551 51 178 4.3 8.7 0.00 0.11 0.11 84 1006.6
20260509233051 51 169 2.6 5.2 0.00 0.11 0.11 85 1006.6
20260509232551 51 158 1.7 7.0 0.00 0.11 0.11 85 1006.6
20260509232051 51 202 3.5 8.7 0.00 0.11 0.11 84 1006.7
20260509231553 51 180 4.3 8.7 0.00 0.11 0.11 84 1006.6
20260509231050 51 202 3.5 7.0 0.00 0.11 0.11 84 1006.7
20260509230552 51 206 2.6 7.0 0.00 0.11 0.11 84 1006.6
20260509230053 51 207 1.7 8.7 0.00 0.11 0.11 84 1006.6
20260509225550 51 179 3.5 9.6 0.00 0.11 0.11 84 1006.5
20260509225049 51 205 1.7 9.6 0.00 0.11 0.11 84 1006.5
20260509224550 51 188 5.2 8.7 0.00 0.11 0.11 84 1006.4
20260509224050 51 174 1.7 8.7 0.00 0.11 0.11 84 1006.4
20260509223550 51 190 3.5 8.7 0.00 0.11 0.11 84 1006.3
20260509223053 51 225 4.3 9.6 0.00 0.11 0.11 84 1006.3
20260509222550 51 211 4.3 9.6 0.00 0.11 0.11 84 1006.3
20260509222049 51 209 1.7 12.2 0.00 0.11 0.11 84 1006.5
20260509221549 51 182 4.3 12.2 0.00 0.11 0.11 84 1006.4
20260509221048 51 189 3.5 13.9 0.00 0.11 0.11 84 1006.4
20260509220547 51 186 6.1 13.9 0.00 0.11 0.11 84 1006.4
20260509220050 51 194 3.5 9.6 0.00 0.11 0.11 84 1006.4
20260509215546 51 232 3.5 8.7 0.00 0.11 0.11 84 1006.5
20260509215047 51 182 6.1 12.2 0.00 0.11 0.11 84 1006.4
20260509214547 51 183 4.3 9.6 0.00 0.11 0.11 84 1006.5
20260509214046 51 188 3.5 10.4 0.00 0.11 0.11 84 1006.5
20260509213546 51 180 2.6 10.4 0.00 0.11 0.11 84 1006.5
20260509213102 51 222 5.2 8.7 0.00 0.11 0.11 84 1006.4
20260509212544 51 191 3.5 8.7 0.00 0.11 0.11 84 1006.5
20260509212042 51 150 3.5 8.7 0.00 0.11 0.11 85 1006.6
20260509211542 51 213 2.6 8.7 0.00 0.11 0.11 85 1006.6
20260509211042 51 194 2.6 11.3 0.00 0.11 0.11 85 1006.6
20260509210543 51 209 5.2 11.3 0.00 0.11 0.11 85 1006.7
20260509210046 51 214 3.5 9.6 0.00 0.11 0.11 85 1006.8
20260509205544 51 142 4.3 9.6 0.00 0.11 0.11 85 1006.8
20260509205040 51 205 3.5 7.0 0.00 0.11 0.11 86 1006.8
20260509204540 51 224 1.7 11.3 0.00 0.11 0.11 86 1007.0
20260509204038 51 175 5.2 11.3 0.00 0.11 0.11 86 1007.0
20260509203540 51 196 7.0 11.3 0.00 0.11 0.11 86 1007.0
20260509203037 51 193 1.7 11.3 0.00 0.11 0.11 87 1007.0
20260509202541 50 188 6.1 11.3 0.00 0.11 0.11 87 1007.0
20260509202036 51 222 5.2 11.3 0.00 0.11 0.11 88 1007.1
20260509201539 50 172 5.2 11.3 0.00 0.11 0.11 88 1007.1
20260509201034 50 194 4.3 10.4 0.00 0.11 0.11 88 1007.1
20260509200539 50 184 6.1 10.4 0.00 0.11 0.11 88 1007.1
20260509200034 50 193 6.1 13.0 0.00 0.11 0.11 88 1007.1
20260509195531 50 182 4.3 13.0 0.00 0.12 0.11 88 1007.1
20260509195029 50 161 3.5 14.8 0.00 0.12 0.11 88 1007.2
20260509194540 50 187 6.1 14.8 0.00 0.12 0.11 88 1007.4
20260509194026 50 184 5.2 14.8 0.00 0.12 0.11 88 1007.3
20260509193527 50 169 6.1 14.8 0.00 0.12 0.11 88 1007.5
20260509193025 50 200 6.1 13.0 0.00 0.12 0.11 88 1007.5
20260509192522 50 209 7.0 13.0 0.00 0.12 0.11 88 1007.5
20260509192020 50 235 3.5 10.4 0.00 0.12 0.11 88 1007.6
20260509191520 50 205 4.3 8.7 0.00 0.12 0.11 88 1007.7
20260509191023 50 147 4.3 8.7 0.00 0.12 0.11 87 1007.8
20260509190519 50 202 5.2 8.7 0.00 0.12 0.11 87 1007.7
20260509190019 50 187 5.2 8.7 0.00 0.12 0.11 86 1007.8
20260509185516 50 197 6.1 8.7 0.00 0.12 0.11 86 1007.8
20260509185015 50 192 5.2 8.7 0.00 0.12 0.11 86 1007.8
20260509184514 50 194 4.3 9.6 0.00 0.12 0.11 86 1007.8
20260509184013 50 191 5.2 9.6 0.00 0.12 0.11 85 1007.8
20260509183511 50 180 5.2 9.6 0.00 0.12 0.11 85 1007.9
20260509183013 50 150 2.6 8.7 0.00 0.12 0.11 85 1007.9
20260509182508 50 210 1.7 8.7 0.00 0.12 0.11 85 1007.8
20260509182006 50 196 2.6 8.7 0.00 0.12 0.11 85 1007.7
20260509181505 50 188 3.5 12.2 0.00 0.12 0.11 85 1007.8
20260509181005 50 210 4.3 12.2 0.00 0.12 0.11 86 1007.8
20260509180504 50 196 1.7 5.2 0.00 0.12 0.11 86 1007.8
20260509180003 50 207 1.7 9.6 0.00 0.12 0.11 86 1007.8
20260509175502 50 182 5.2 9.6 0.00 0.12 0.11 86 1007.8
20260509175101 50 213 4.3 9.6 0.00 0.12 0.11 87 1007.7
20260509174600 50 208 1.7 6.1 0.00 0.12 0.11 87 1007.8
20260509174058 49 218 1.7 9.6 0.00 0.12 0.11 87 1007.8
20260509173600 49 155 1.7 9.6 0.00 0.12 0.11 87 1007.7
20260509173107 49 208 2.6 7.8 0.00 0.12 0.11 88 1007.7
20260509172557 49 202 3.5 7.8 0.00 0.12 0.11 88 1007.7
20260509172055 49 203 2.6 4.3 0.00 0.12 0.11 88 1007.8
20260509171557 49 197 1.7 6.1 0.00 0.12 0.11 88 1007.8
20260509171053 49 190 3.5 6.1 0.00 0.12 0.11 88 1007.9
20260509170552 49 192 2.6 7.8 0.00 0.12 0.11 88 1007.9
20260509170050 49 186 3.5 7.8 0.00 0.12 0.11 88 1008.0
20260509165549 49 192 2.6 7.0 0.00 0.13 0.11 88 1008.0
20260509165048 48 158 2.6 6.1 0.00 0.13 0.11 88 1008.0
20260509164547 48 178 1.7 6.1 0.01 0.13 0.11 88 1008.0
20260509164047 48 187 2.6 7.0 0.01 0.13 0.11 88 1008.1
20260509163548 48 161 2.6 7.0 0.01 0.13 0.11 88 1008.2
20260509163046 48 189 1.7 7.8 0.01 0.13 0.11 89 1008.2
20260509162545 48 155 3.5 7.8 0.01 0.13 0.11 88 1008.4
20260509162046 48 147 2.6 7.8 0.01 0.13 0.11 89 1008.4
20260509161555 48 146 5.2 7.8 0.01 0.13 0.11 89 1008.4
20260509161043 48 170 3.5 7.0 0.01 0.13 0.11 89 1008.5
20260509160544 48 113 2.6 7.8 0.01 0.13 0.11 89 1008.6
20260509160042 49 194 1.7 7.8 0.01 0.13 0.11 90 1008.6
20260509155540 48 167 2.6 7.8 0.01 0.13 0.11 90 1008.7
20260509155040 48 136 3.5 6.1 0.01 0.13 0.11 90 1008.8
20260509154546 48 169 0.9 7.0 0.00 0.12 0.10 90 1008.8
20260509154038 48 191 2.6 7.0 0.01 0.12 0.10 91 1009.0
20260509153539 48 136 3.5 7.0 0.01 0.12 0.10 91 1008.8
20260509153052 48 130 3.5 6.1 0.01 0.12 0.10 91 1009.0
20260509152535 48 139 1.7 6.1 0.02 0.12 0.10 91 1009.0
20260509152035 47 128 3.5 7.0 0.02 0.12 0.10 91 1009.1
20260509151534 47 130 1.7 7.0 0.02 0.12 0.10 91 1009.0
20260509151033 47 126 2.6 7.0 0.03 0.12 0.10 91 1009.0
20260509150532 47 141 1.7 7.0 0.03 0.12 0.10 91 1009.1
20260509150032 47 133 2.6 7.0 0.04 0.12 0.10 91 1009.1
20260509145531 46 146 1.7 7.0 0.05 0.13 0.10 91 1009.1
20260509145030 46 166 1.7 6.1 0.05 0.13 0.10 91 1009.1
20260509144529 46 146 2.6 6.1 0.05 0.13 0.10 91 1009.1
20260509144028 46 156 1.7 7.0 0.04 0.12 0.09 91 1009.2
20260509143527 46 142 2.6 7.8 0.04 0.12 0.09 91 1009.2
20260509143028 46 130 4.3 7.8 0.04 0.12 0.09 91 1009.2
20260509142525 46 139 1.7 6.1 0.04 0.11 0.08 91 1009.3
20260509142024 45 147 2.6 6.1 0.04 0.11 0.08 90 1009.3
20260509141533 45 115 2.6 7.0 0.04 0.11 0.08 91 1009.3
20260509141024 45 135 1.7 5.2 0.04 0.10 0.07 90 1009.2
20260509140523 45 152 0.9 6.1 0.04 0.10 0.07 90 1009.2
20260509140022 45 139 3.5 6.1 0.03 0.09 0.06 90 1009.2
20260509135522 45 111 1.7 4.3 0.02 0.08 0.05 90 1009.2
20260509135021 45 143 1.7 6.1 0.03 0.08 0.05 90 1009.2
20260509134520 45 156 2.6 6.1 0.03 0.08 0.05 90 1009.2
20260509134023 45 155 1.7 5.2 0.03 0.08 0.05 90 1009.2
20260509133520 45 128 1.7 5.2 0.03 0.08 0.05 90 1009.4
20260509133022 45 124 0.9 4.3 0.04 0.08 0.05 90 1009.3
20260509132521 45 140 0.0 2.6 0.03 0.07 0.04 90 1009.3
20260509132018 44 148 0.9 2.6 0.03 0.07 0.04 90 1009.3
20260509131521 44 94 0.9 2.6 0.03 0.07 0.04 90 1009.3
20260509131016 44 94 0.9 2.6 0.02 0.06 0.03 89 1009.3
20260509130516 44 96 0.9 2.6 0.02 0.06 0.03 89 1009.4
20260509130015 44 88 0.9 3.5 0.02 0.06 0.03 89 1009.4
20260509125516 44 88 1.7 3.5 0.02 0.06 0.03 88 1009.6
20260509125016 44 98 0.9 3.5 0.02 0.05 0.02 89 1009.6
20260509124513 44 144 1.7 3.5 0.02 0.05 0.02 88 1009.6
20260509124014 44 109 0.9 4.3 0.02 0.05 0.02 88 1009.7
20260509123513 44 128 0.0 4.3 0.02 0.05 0.02 88 1009.8
20260509123012 44 128 0.9 4.3 0.01 0.04 0.01 88 1009.8
20260509122508 43 138 2.6 4.3 0.01 0.04 0.01 88 1009.9
20260509122010 43 136 1.7 6.1 0.01 0.04 0.01 87 1009.9
20260509121508 43 153 1.7 6.1 0.01 0.04 0.01 87 1010.0
20260509121010 43 149 1.7 7.0 0.01 0.04 0.01 87 1010.1
20260509120506 43 142 2.6 7.8 0.01 0.04 0.01 87 1010.1
20260509120007 43 133 3.5 7.0 0.01 0.04 0.01 86 1010.0
20260509115506 43 143 3.5 6.1 0.01 0.04 0.01 86 1010.1
20260509115010 42 134 1.7 5.2 0.00 0.03 0.00 85 1010.1
20260509114506 42 98 0.9 3.5 0.00 0.03 0.00 84 1010.1
20260509114006 42 99 1.7 3.5 0.00 0.03 0.00 83 1010.0
20260509113506 43 103 1.7 7.0 0.00 0.03 0.00 84 1010.1
20260509113005 43 139 2.6 7.0 0.00 0.03 0.00 84 1010.0
20260509112505 43 146 1.7 7.0 0.00 0.03 0.00 84 1010.0
20260509112006 43 132 2.6 4.3 0.00 0.03 0.00 84 1010.1
20260509111504 43 117 2.6 6.1 0.00 0.03 0.00 84 1010.0
20260509111003 43 140 2.6 6.1 0.00 0.03 0.00 84 1010.1
20260509110506 43 138 2.6 7.0 0.00 0.03 0.00 84 1010.1
20260509110004 43 135 1.7 7.8 0.00 0.03 0.00 84 1010.0
20260509105502 42 139 3.5 7.8 0.00 0.03 0.00 84 1009.8
20260509105002 42 142 3.5 7.0 0.00 0.03 0.00 83 1009.8
20260509104503 42 146 3.5 7.0 0.00 0.03 0.00 83 1009.8
20260509104001 42 133 3.5 7.0 0.00 0.03 0.00 83 1009.7
20260509103501 42 150 3.5 7.0 0.00 0.03 0.00 82 1009.8
20260509103108 42 146 2.6 7.0 0.00 0.03 0.00 82 1009.7
20260509102558 41 135 1.7 6.1 0.00 0.03 0.00 81 1009.7
20260509102057 40 150 1.7 4.3 0.00 0.03 0.00 80 1009.7
20260509101615 40 101 0.0 0.0 0.00 0.03 0.00 77 1009.6
20260509101055 39 81 0.0 0.0 0.00 0.03 0.00 76 1009.5
20260509100556 39 81 0.0 1.7 0.00 0.03 0.00 76 1009.6
20260509100059 39 85 0.0 2.6 0.00 0.03 0.00 76 1009.4
20260509095554 39 92 0.0 2.6 0.00 0.04 0.00 75 1009.5
20260509095053 39 92 0.0 4.3 0.00 0.04 0.00 76 1009.7
20260509094559 39 90 0.0 6.1 0.00 0.04 0.00 77 1009.7
20260509094052 39 115 2.6 6.1 0.00 0.04 0.00 76 1009.4
20260509093552 39 123 2.6 5.2 0.00 0.04 0.00 78 1009.7
20260509093051 38 120 1.7 2.6 0.00 0.04 0.00 80 1009.8
20260509092550 38 123 0.9 2.6 0.00 0.04 0.00 80 1009.8
20260509092052 38 123 0.9 2.6 0.00 0.04 0.00 80 1010.0
20260509091554 38 123 0.0 2.6 0.00 0.04 0.00 80 1009.9
20260509091049 38 123 0.9 2.6 0.00 0.04 0.00 80 1009.9
20260509090549 38 123 1.7 2.6 0.00 0.04 0.00 81 1010.0
20260509090055 37 124 0.9 2.6 0.00 0.04 0.00 82 1010.1
20260509085548 37 126 0.9 3.5 0.00 0.06 0.00 83 1010.1
20260509085048 37 128 1.7 5.2 0.00 0.06 0.00 84 1010.0
20260509084558 37 87 1.7 5.2 0.00 0.06 0.00 84 1010.0
20260509084048 37 103 1.7 6.1 0.00 0.06 0.00 84 1010.1
20260509083547 37 125 2.6 6.1 0.00 0.06 0.00 84 1010.1
20260509083059 36 117 1.7 5.2 0.00 0.06 0.00 84 1010.2
20260509082546 36 123 2.6 6.1 0.00 0.06 0.00 84 1010.3
20260509082050 36 105 2.6 5.2 0.00 0.06 0.00 84 1010.4
20260509081546 36 128 1.7 5.2 0.00 0.06 0.00 84 1010.4
20260509081045 36 111 1.7 5.2 0.00 0.06 0.00 84 1010.4
20260509080548 36 128 1.7 3.5 0.00 0.06 0.00 84 1010.3
20260509080049 36 132 1.7 3.5 0.00 0.06 0.00 84 1010.4
20260509075544 36 115 1.7 2.6 0.00 0.06 0.00 84 1010.3
20260509075044 35 115 1.7 2.6 0.00 0.06 0.00 84 1010.3
20260509074602 35 115 0.9 2.6 0.00 0.06 0.00 84 1010.3
20260509074043 35 109 1.7 3.5 0.00 0.06 0.00 84 1010.2
20260509073546 35 109 1.7 5.2 0.00 0.06 0.00 84 1010.2
20260509073100 35 107 2.6 5.2 0.00 0.06 0.00 85 1010.1
20260509072542 35 101 2.6 3.5 0.00 0.06 0.00 86 1010.1
20260509072040 34 101 2.6 5.2 0.00 0.06 0.00 86 1010.1
20260509071548 34 101 2.6 3.5 0.00 0.06 0.00 86 1010.1
20260509071041 34 109 1.7 3.5 0.00 0.06 0.00 85 1010.3
20260509070538 34 107 1.7 5.2 0.00 0.06 0.00 85 1010.2
20260509070040 35 107 2.6 5.2 0.00 0.06 0.00 85 1010.2
20260509065535 34 107 2.6 3.5 0.00 0.06 0.00 85 1010.3
20260509065035 34 105 1.7 3.5 0.00 0.06 0.00 85 1010.4
20260509064537 34 106 2.6 3.5 0.00 0.06 0.00 85 1010.4
20260509064034 34 104 2.6 3.5 0.00 0.06 0.00 85 1010.3